Home   Weather   Waterford   Past weeks

Flag for Ireland Past Weather in Waterford, Ireland — Yesterday and Last 2 Weeks

Now
46 °F

Partly sunny.


Feels Like: 44 °F
Forecast: 43 / 48 °F
Wind: 6 mph from South

Location: Cork Airport

Current Time: Jan 18, 2017 at 12:32:37 pm

Latest Report: Jan 18, 2017 at 12:00 pm


Visibility: N/A

Pressure: 30.60 "Hg

Humidity: 93%

Dew Point: 45 °F

Location of WaterfordLocation

Past Weather in Waterford — Graph

°F

Waterford Temperature Yesterday

Maximum temperature yesterday: 48 °F (at 1:00 am)
Minimum temperature yesterday: 45 °F (at 5:00 pm)
Average temperature yesterday: 46 °F

High & Low Weather Summary for the Past Weeks

 TemperatureHumidityPressure
High54 °F (Jan 7, 3:30 pm)100% (Jan 4, 10:00 pm)30.60 "Hg (Jan 4, 10:00 pm)
Low32 °F (Jan 4, 12:00 am)57% (Jan 11, 12:00 pm)29.68 "Hg (Jan 12, 2:00 pm)
Average44 °F90%30.29 "Hg
* Reported Jan 3 11:00 am — Jan 18 11:30 am, Waterford, Weather by CustomWeather, © 2017

Note: Actual official high and low records may vary slightly from our data, if they occured in-between our weather recording intervals... More about our weather records

Advertising

Waterford Weather History for the Previous 24 Hours

Scroll right to see more
 ConditionsComfort  
Time TempWeatherWind HumidityBarometerVisibility
11:30 am
Wed, Jan 18
46 °FPartly sunny.5 mph93%30.60 "HgN/A
11:00 am46 °FPartly sunny.6 mph93%30.60 "HgN/A
10:30 am46 °FBroken clouds.6 mph93%30.60 "HgN/A
10:00 am46 °FBroken clouds.6 mph93%30.60 "HgN/A
9:30 am46 °FBroken clouds.6 mph93%30.60 "HgN/A
9:00 am46 °FBroken clouds.7 mph93%30.57 "HgN/A
8:30 am46 °FPartly cloudy.6 mph93%30.57 "HgN/A
8:00 am46 °FPartly cloudy.7 mph93%30.57 "HgN/A
7:30 am46 °FPartly cloudy.6 mph93%30.54 "HgN/A
7:00 am46 °FPassing clouds.6 mph93%30.54 "HgN/A
6:30 am46 °FPassing clouds.5 mph93%30.54 "HgN/A
6:00 am46 °FPassing clouds.6 mph93%30.54 "HgN/A
5:30 am45 °FPartly cloudy.6 mph93%30.54 "HgN/A
5:00 am45 °FPassing clouds.3 mph93%30.54 "HgN/A
4:30 am45 °FPassing clouds.3 mph93%30.54 "HgN/A
4:00 am45 °FPassing clouds.5 mph93%30.54 "HgN/A
3:30 am45 °FPassing clouds.3 mph93%30.54 "HgN/A
3:00 am45 °FPassing clouds.3 mph93%30.54 "HgN/A
2:30 am45 °FPassing clouds.3 mph93%30.54 "HgN/A
2:00 am45 °FPassing clouds.3 mph93%30.54 "HgN/A
1:30 am45 °FPassing clouds.3 mph93%30.54 "HgN/A
1:00 am45 °FPassing clouds.5 mph100%30.54 "HgN/A
12:30 am45 °FPassing clouds.5 mph100%30.54 "HgN/A
12:00 am45 °FPassing clouds.6 mph100%30.54 "HgN/A
11:30 pm
Tue, Jan 17
45 °FPassing clouds.5 mph100%30.54 "HgN/A
11:00 pm45 °FPassing clouds.3 mph100%30.54 "HgN/A
10:30 pm45 °FPassing clouds.3 mph100%30.54 "HgN/A
10:00 pm45 °FPassing clouds.2 mph100%30.54 "Hg6 mi
9:30 pm45 °FPassing clouds.3 mph100%30.54 "Hg5 mi
9:00 pm45 °FPassing clouds.3 mph100%30.54 "Hg5 mi
8:30 pm45 °FPassing clouds.2 mph100%30.54 "Hg5 mi
8:00 pm45 °FPassing clouds.3 mph100%30.54 "Hg5 mi
7:30 pm45 °FPassing clouds.3 mph100%30.54 "Hg4 mi
7:00 pm46 °FPassing clouds.6 mph93%30.54 "Hg2 mi
6:30 pm46 °FPartly cloudy.7 mph93%30.51 "HgN/A
6:00 pm45 °FPartly cloudy.6 mph100%30.51 "Hg6 mi
5:30 pm45 °FPartly cloudy.5 mph100%30.51 "Hg5 mi
5:00 pm45 °FPassing clouds.8 mph100%30.51 "Hg1 mi
4:30 pm46 °FDrizzle. Broken clouds.9 mph93%30.51 "Hg1 mi
4:00 pm46 °FDrizzle. Broken clouds.8 mph100%30.51 "Hg1 mi
3:30 pm46 °FDrizzle. Broken clouds.8 mph100%30.51 "Hg1 mi
3:00 pm46 °FDrizzle. Broken clouds.7 mph100%30.51 "Hg1 mi
2:30 pm46 °FDrizzle. Broken clouds.9 mph100%30.51 "Hg2 mi
2:00 pm46 °FFog.9 mph100%30.51 "Hg1 mi
1:30 pm46 °FFog.9 mph100%30.51 "Hg1 mi
1:00 pm48 °FFog.6 mph94%30.51 "Hg1 mi
12:30 pm48 °FDrizzle. Broken clouds.3 mph94%30.51 "Hg1 mi
12:00 pm48 °FBroken clouds.3 mph100%30.51 "Hg4 mi
Weather by CustomWeather, © 2017

See weather overviewHow to use our weather pages